Location: Al Mulaqqa?ah
(24.1833°N, 32.8833°E)
Time: 21:08:31
(UTC+00:00)

Cosmos 921 Rocket - Pass Details

Date: 26 September 2021
Orbit: 572 x 631 km, 75.8° (Epoch: 21 October)

Event Time Altitude Azimuth Distance (km) Brightness Sun altitude
Rises 15:58:41 0° 343° (NNW) 2,806 6.7 -5.0°
Reaches altitude 10° 16:00:55 10° 341° (NNW) 1,896 5.8 -5.5°
Maximum altitude 16:05:06 66° 259° (W) 631 3.4 -6.4°
Drops below altitude 10° 16:09:12 10° 177° (S) 1,869 5.5 -7.4°
Sets 16:11:24 0° 174° (S) 2,762 6.3 -7.9°
